Location: Tel Aviv
(32.0670°N, 34.7670°E)
Time: 15:38:43
(UTC+03:00)

RS-15 - Visible Passes

Search period start: 29 September 2023 00:00
Search period end: 09 October 2023 00:00
Orbit: 1888 x 2156 km, 64.8° (Epoch: 28 September)

Date Brightness Start Highest point End Pass type
(mag) Time Alt. Az. Time Alt. Az. Time Alt. Az.
29 Sep 10.7 06:01:29 10° SE 06:08:07 16° E 06:14:41 10° ENE visible
29 Sep 9.7 19:29:28 10° NW 19:38:40 31° WSW 19:47:41 10° SSW visible
30 Sep 9.2 18:52:44 10° NW 19:03:01 43° WSW 19:12:58 10° S visible
02 Oct 10.5 19:57:49 10° WNW 20:01:42 12° W 20:05:34 10° WSW visible
03 Oct 10.3 05:46:23 10° SSE 05:55:41 26° ESE 06:04:50 10° NE visible
03 Oct 10.2 19:19:01 10° WNW 19:26:14 20° W 19:33:21 10° SW visible
04 Oct 10.5 05:13:03 10° SE 05:20:08 18° E 05:27:07 10° ENE visible
04 Oct 10.0 18:41:40 10° NW 18:50:40 29° WSW 18:59:29 10° SSW visible
05 Oct 10.8 04:42:45 10° ESE 04:44:40 10° E 04:46:34 10° E visible
06 Oct 9.2 06:07:29 10° S 06:19:08 51° ESE 06:30:34 10° NE visible
07 Oct 9.6 05:32:33 10° SSE 05:43:22 38° ESE 05:54:00 10° NE visible
07 Oct 10.8 19:10:41 10° W 19:13:41 11° W 19:16:39 10° WSW visible
08 Oct 10.0 04:58:10 10° SSE 05:07:42 27° ESE 05:17:05 10° NE visible
08 Oct 10.5 18:31:22 10° WNW 18:38:14 19° W 18:45:01 10° SW visible
